Location: Shenandoah County Park
(38.9356°N, 78.4524°W)
Time: 06:25:44
(UTC-04:00)

Vanguard 1 Rocket - Pass Details

Date: 08 February 2023
Orbit: 652 x 4223 km, 34.3° (Epoch: 26 March)

Event Time Altitude Azimuth Distance (km) Brightness Sun altitude
Rises 16:11:49 0° 280° (W) 5,600 12.2 15.1°
Reaches altitude 10° 16:14:54 10° 276° (W) 4,972 12.1 14.6°
Maximum altitude 16:30:13 55° 204° (SSW) 3,934 11.3 12.0°
Drops below altitude 10° 16:54:26 10° 136° (SE) 7,422 11.9 7.9°
Sets 17:00:30 0° 132° (SE) 8,403 12.1 6.8°
